S-Net B (43187 NORAD) Tracking and Keplerian Element Data

This shows tracking and keplerian element data for the satellite.

Feedback or suggestion? Click here.




ElementValue
Catalog43187
NameS-Net B
Epoch Orbit34707
Epoch Day159.67794373
Epoch Year2024
RAAN61.6339
Inclination97.5931
Eccentricity0.0012236
Argument of Perigee40.3978
Mean Anonmoly319.8155
Mean Motion15.04474622
Decay Rate8.36E-05
L11 43187U 18014H 24159.67794373 .00008360 00000-0 60051-3 0 9996
L22 43187 97.5931 61.6339 0012236 40.3978 319.8155 15.04474622347070



Live tracking and technical data element details for S-Net B (NORAD 43187). S-Net B can be tracked NOW for your location showing map with azimuth and elevation plus other details from your city location.







IsCatalogInMostPopularTable: catalog: 43187, numindb: 672
Update: records affected: 1



GetName: 43187 S-Net B

Hit Count: updated at: Mon, 17 Jun 2024 22:35:19 GMT